Simultaneous Nadir Overpasses (SNOs) Predictions

Prediction of SNOs between GOES-16 and NOAA-20 Satellite Orbit:

Table of predicted SNOs for the next 14.0 days since TLE Epoch: 3/19/2022
Index Date Time (GOES-16) GOES-16 Lat,Lon NOAA-20 Lat,Lon Distance(km) Time Diff (sec)
1 03/19/2022 18:39:21 0.06, -75.22 -0.74, -78.75 402.20 80
2 03/20/2022 18:23:17 0.06, -75.23 0.29, -74.22 114.41 80
3 03/22/2022 06:45:06 -0.06, -75.23 0.88, -79.50 485.95 80
4 03/23/2022 06:23:43 -0.06, -75.23 -0.15, -74.97 30.67 80
5 03/25/2022 18:26:56 0.05, -75.25 -0.08, -75.73 56.34 80
6 03/26/2022 18:10:52 0.05, -75.25 0.95, -71.21 460.72 80
7 03/28/2022 06:32:42 -0.04, -75.26 0.22, -76.48 138.57 80
8 03/29/2022 06:11:17 -0.04, -75.27 -0.76, -71.94 378.84 80
9 03/30/2022 18:33:14 0.03, -75.30 -0.43, -77.25 223.15 80
10 03/31/2022 18:17:11 0.03, -75.31 0.60, -72.72 295.00 80
